| time (UTC) | temp F | wind direction | speed MPH | gust MPH | rain 1hr in | rain 24hr in | rain mn in | humidity % | barometer mb |
| 20260905212013 | 102 | 272 | 0.0 | 3.0 | 0.00 | 0.00 | 0.00 | 39 | 1004.3 |
| 20260905211516 | 101 | 222 | 0.0 | 3.0 | 0.00 | 0.00 | 0.00 | 37 | 1004.5 |
| 20260905211013 | 101 | 70 | 0.0 | 2.0 | 0.00 | 0.00 | 0.00 | 37 | 1004.5 |
| 20260905210513 | 100 | 321 | 0.0 | 3.0 | 0.00 | 0.00 | 0.00 | 38 | 1004.5 |
| 20260905210013 | 101 | 330 | 0.0 | 3.0 | 0.00 | 0.00 | 0.00 | 38 | 1004.4 |
| 20260905205511 | 101 | 219 | 0.0 | 4.0 | 0.00 | 0.00 | 0.00 | 38 | 1004.5 |
| 20260905205011 | 102 | 20 | 0.0 | 4.0 | 0.00 | 0.00 | 0.00 | 37 | 1004.6 |
| 20260905204509 | 103 | 359 | 0.0 | 3.0 | 0.00 | 0.00 | 0.00 | 37 | 1004.7 |
| 20260905204009 | 102 | 255 | 0.0 | 3.0 | 0.00 | 0.00 | 0.00 | 39 | 1004.8 |
| 20260905203508 | 101 | 59 | 0.0 | 6.0 | 0.00 | 0.00 | 0.00 | 39 | 1004.8 |
| 20260905203008 | 101 | 49 | 2.0 | 6.0 | 0.00 | 0.00 | 0.00 | 37 | 1004.9 |
| 20260905202508 | 101 | 246 | 1.0 | 4.0 | 0.00 | 0.00 | 0.00 | 37 | 1005.0 |
| 20260905202008 | 101 | 194 | 0.0 | 7.0 | 0.00 | 0.00 | 0.00 | 37 | 1005.0 |
| 20260905201507 | 102 | 70 | 1.0 | 7.0 | 0.00 | 0.00 | 0.00 | 36 | 1005.0 |
| 20260905201008 | 102 | 345 | 0.0 | 3.0 | 0.00 | 0.00 | 0.00 | 38 | 1005.1 |
| 20260905200505 | 102 | 352 | 0.0 | 3.0 | 0.00 | 0.00 | 0.00 | 38 | 1005.2 |
| 20260905200005 | 101 | 27 | 0.0 | 5.0 | 0.00 | 0.00 | 0.00 | 39 | 1005.4 |
| 20260905195503 | 101 | 337 | 0.0 | 5.0 | 0.00 | 0.00 | 0.00 | 40 | 1005.5 |
| 20260905195004 | 102 | 41 | 0.0 | 3.0 | 0.00 | 0.00 | 0.00 | 38 | 1005.5 |
| 20260905194502 | 102 | 47 | 0.0 | 5.0 | 0.00 | 0.00 | 0.00 | 39 | 1005.6 |
| 20260905194101 | 101 | 146 | 0.0 | 5.0 | 0.00 | 0.00 | 0.00 | 39 | 1005.6 |
| 20260905193558 | 100 | 71 | 0.0 | 4.0 | 0.00 | 0.00 | 0.00 | 41 | 1005.7 |
| 20260905193058 | 100 | 84 | 0.0 | 4.0 | 0.00 | 0.00 | 0.00 | 39 | 1005.8 |
| 20260905192558 | 100 | 276 | 1.0 | 3.0 | 0.00 | 0.00 | 0.00 | 38 | 1005.9 |
| 20260905192057 | 99 | 39 | 0.0 | 5.0 | 0.00 | 0.00 | 0.00 | 42 | 1005.9 |
| 20260905191555 | 99 | 302 | 1.0 | 5.0 | 0.00 | 0.00 | 0.00 | 41 | 1006.0 |
| 20260905191054 | 100 | 247 | 1.0 | 5.0 | 0.00 | 0.00 | 0.00 | 40 | 1006.2 |
| 20260905190553 | 99 | 265 | 0.0 | 5.0 | 0.00 | 0.00 | 0.00 | 42 | 1006.2 |
| 20260905190052 | 99 | 233 | 2.0 | 5.0 | 0.00 | 0.00 | 0.00 | 43 | 1006.4 |
| 20260905185555 | 99 | 262 | 2.0 | 6.0 | 0.00 | 0.00 | 0.00 | 43 | 1006.6 |
| 20260905185051 | 99 | 172 | 0.0 | 4.0 | 0.00 | 0.00 | 0.00 | 45 | 1006.7 |
| 20260905184551 | 99 | 22 | 0.0 | 3.0 | 0.00 | 0.00 | 0.00 | 42 | 1006.8 |
| 20260905184051 | 99 | 204 | 1.0 | 4.0 | 0.00 | 0.00 | 0.00 | 43 | 1006.7 |
| 20260905183551 | 99 | 204 | 1.0 | 6.0 | 0.00 | 0.00 | 0.00 | 44 | 1006.8 |
| 20260905183050 | 99 | 75 | 1.0 | 6.0 | 0.00 | 0.00 | 0.00 | 42 | 1006.9 |
| 20260905182549 | 99 | 205 | 0.0 | 2.0 | 0.00 | 0.00 | 0.00 | 44 | 1007.0 |
| 20260905182048 | 98 | 230 | 0.0 | 2.0 | 0.00 | 0.00 | 0.00 | 45 | 1007.0 |
| 20260905181546 | 97 | 153 | 0.0 | 2.0 | 0.00 | 0.00 | 0.00 | 47 | 1007.0 |
| 20260905181045 | 97 | 202 | 0.0 | 6.0 | 0.00 | 0.00 | 0.00 | 47 | 1007.2 |
| 20260905180545 | 97 | 70 | 3.0 | 6.0 | 0.00 | 0.00 | 0.00 | 43 | 1007.3 |
| 20260905180045 | 97 | 343 | 1.0 | 6.0 | 0.00 | 0.00 | 0.00 | 45 | 1007.3 |
| 20260905175542 | 96 | 283 | 0.0 | 6.0 | 0.00 | 0.00 | 0.00 | 48 | 1007.3 |
| 20260905175042 | 95 | 176 | 1.0 | 5.0 | 0.00 | 0.00 | 0.00 | 49 | 1007.5 |
| 20260905174544 | 94 | 231 | 1.0 | 4.0 | 0.00 | 0.00 | 0.00 | 51 | 1007.5 |
| 20260905174042 | 94 | 316 | 1.0 | 4.0 | 0.00 | 0.00 | 0.00 | 49 | 1007.5 |
| 20260905173542 | 94 | 257 | 1.0 | 6.0 | 0.00 | 0.00 | 0.00 | 48 | 1007.7 |
| 20260905173041 | 94 | 320 | 1.0 | 6.0 | 0.00 | 0.00 | 0.00 | 48 | 1007.8 |
| 20260905172541 | 96 | 225 | 0.0 | 2.0 | 0.00 | 0.00 | 0.00 | 46 | 1007.9 |
| 20260905172041 | 96 | 34 | 0.0 | 4.0 | 0.00 | 0.00 | 0.00 | 45 | 1007.9 |
| 20260905171554 | 96 | 286 | 0.0 | 4.0 | 0.00 | 0.00 | 0.00 | 49 | 1008.0 |
| 20260905171040 | 95 | 227 | 0.0 | 4.0 | 0.00 | 0.00 | 0.00 | 49 | 1008.0 |
| 20260905170537 | 95 | 204 | 0.0 | 4.0 | 0.00 | 0.00 | 0.00 | 49 | 1007.9 |
| 20260905170036 | 95 | 160 | 0.0 | 5.0 | 0.00 | 0.00 | 0.00 | 50 | 1008.1 |
| 20260905165535 | 95 | 207 | 0.0 | 3.0 | 0.00 | 0.00 | 0.00 | 50 | 1008.1 |
| 20260905165033 | 94 | 224 | 1.0 | 4.0 | 0.00 | 0.00 | 0.00 | 51 | 1008.2 |
| 20260905164539 | 94 | 124 | 1.0 | 4.0 | 0.00 | 0.00 | 0.00 | 50 | 1008.2 |
| 20260905164032 | 94 | 199 | 0.0 | 4.0 | 0.00 | 0.00 | 0.00 | 51 | 1008.1 |
| 20260905163533 | 94 | 297 | 0.0 | 3.0 | 0.00 | 0.00 | 0.00 | 51 | 1008.2 |
| 20260905163035 | 93 | 239 | 0.0 | 3.0 | 0.00 | 0.00 | 0.00 | 53 | 1008.2 |
| 20260905162529 | 94 | 349 | 0.0 | 3.0 | 0.00 | 0.00 | 0.00 | 50 | 1008.2 |
| 20260905162028 | 93 | 303 | 0.0 | 1.0 | 0.00 | 0.00 | 0.00 | 55 | 1008.2 |
| 20260905161528 | 92 | 303 | 0.0 | 2.0 | 0.00 | 0.00 | 0.00 | 53 | 1008.2 |
| 20260905161026 | 92 | 233 | 0.0 | 2.0 | 0.00 | 0.00 | 0.00 | 54 | 1008.1 |
| 20260905160524 | 92 | 30 | 0.0 | 3.0 | 0.00 | 0.00 | 0.00 | 56 | 1008.1 |
| 20260905160023 | 91 | 257 | 0.0 | 4.0 | 0.00 | 0.00 | 0.00 | 56 | 1008.0 |
| 20260905155522 | 91 | 237 | 0.0 | 3.0 | 0.00 | 0.00 | 0.00 | 57 | 1008.1 |
| 20260905155021 | 90 | 290 | 0.0 | 5.0 | 0.00 | 0.00 | 0.00 | 58 | 1008.2 |
| 20260905154520 | 90 | 221 | 1.0 | 5.0 | 0.00 | 0.00 | 0.00 | 61 | 1008.1 |
| 20260905154019 | 89 | 311 | 0.0 | 5.0 | 0.00 | 0.00 | 0.00 | 62 | 1008.0 |
| 20260905153518 | 89 | 277 | 0.0 | 4.0 | 0.00 | 0.00 | 0.00 | 63 | 1008.2 |
| 20260905153015 | 88 | 63 | 0.0 | 5.0 | 0.00 | 0.00 | 0.00 | 62 | 1008.2 |
| 20260905152514 | 87 | 330 | 2.0 | 5.0 | 0.00 | 0.00 | 0.00 | 64 | 1008.2 |
| 20260905152012 | 87 | 290 | 1.0 | 5.0 | 0.00 | 0.00 | 0.00 | 63 | 1008.2 |
| 20260905151511 | 86 | 237 | 0.0 | 4.0 | 0.00 | 0.00 | 0.00 | 65 | 1008.1 |
| 20260905151009 | 86 | 179 | 1.0 | 4.0 | 0.00 | 0.00 | 0.00 | 65 | 1008.1 |
| 20260905150508 | 85 | 226 | 2.0 | 4.0 | 0.00 | 0.00 | 0.00 | 66 | 1008.1 |
| 20260905150007 | 84 | 196 | 1.0 | 4.0 | 0.00 | 0.00 | 0.00 | 68 | 1008.0 |
| 20260905145506 | 84 | 210 | 2.0 | 4.0 | 0.00 | 0.00 | 0.00 | 68 | 1008.0 |
| 20260905145004 | 83 | 197 | 1.0 | 6.0 | 0.00 | 0.00 | 0.00 | 70 | 1007.9 |
| 20260905144503 | 83 | 274 | 1.0 | 6.0 | 0.00 | 0.00 | 0.00 | 73 | 1008.0 |
| 20260905144001 | 82 | 238 | 0.0 | 4.0 | 0.00 | 0.00 | 0.00 | 77 | 1007.9 |
| 20260905143503 | 81 | 238 | 0.0 | 2.0 | 0.00 | 0.00 | 0.00 | 78 | 1008.0 |
| 20260905143002 | 81 | 298 | 0.0 | 2.0 | 0.00 | 0.00 | 0.00 | 79 | 1008.0 |
| 20260905142503 | 80 | 245 | 0.0 | 2.0 | 0.00 | 0.00 | 0.00 | 80 | 1008.0 |
| 20260905142004 | 79 | 227 | 0.0 | 2.0 | 0.00 | 0.00 | 0.00 | 81 | 1008.0 |
| 20260905141501 | 79 | 246 | 0.0 | 1.0 | 0.00 | 0.00 | 0.00 | 82 | 1008.0 |
| 20260905141100 | 79 | 246 | 0.0 | 1.0 | 0.00 | 0.00 | 0.00 | 83 | 1008.1 |
| 20260905141000 | 78 | 246 | 0.0 | 1.0 | 0.00 | 0.00 | 0.00 | 84 | 1008.0 |
| 20260905140600 | 78 | 246 | 0.0 | 1.0 | 0.00 | 0.00 | 0.00 | 84 | 1008.0 |
| 20260905140501 | 78 | 246 | 0.0 | 1.0 | 0.00 | 0.00 | 0.00 | 84 | 1008.0 |
| 20260905140104 | 78 | 246 | 0.0 | 1.0 | 0.00 | 0.00 | 0.00 | 84 | 1008.0 |
| 20260905135600 | 77 | 246 | 0.0 | 1.0 | 0.00 | 0.00 | 0.00 | 84 | 1008.1 |
| 20260905135100 | 77 | 246 | 0.0 | 1.0 | 0.00 | 0.00 | 0.00 | 85 | 1008.0 |
| 20260905134606 | 77 | 246 | 0.0 | 1.0 | 0.00 | 0.00 | 0.00 | 85 | 1008.0 |
| 20260905134101 | 77 | 246 | 0.0 | 2.0 | 0.00 | 0.00 | 0.00 | 85 | 1007.9 |
| 20260905133559 | 77 | 246 | 0.0 | 2.0 | 0.00 | 0.00 | 0.00 | 86 | 1007.8 |
| 20260905133057 | 76 | 248 | 0.0 | 2.0 | 0.00 | 0.00 | 0.00 | 86 | 1007.8 |
| 20260905132557 | 76 | 248 | 0.0 | 2.0 | 0.00 | 0.00 | 0.00 | 86 | 1007.7 |
| 20260905132056 | 76 | 248 | 0.0 | 2.0 | 0.00 | 0.00 | 0.00 | 87 | 1007.7 |
| 20260905131556 | 76 | 248 | 0.0 | 3.0 | 0.00 | 0.00 | 0.00 | 87 | 1007.7 |
| 20260905131055 | 75 | 204 | 0.0 | 3.0 | 0.00 | 0.00 | 0.00 | 89 | 1007.5 |
| 20260905130557 | 74 | 217 | 0.0 | 3.0 | 0.00 | 0.00 | 0.00 | 90 | 1007.6 |
| 20260905130054 | 73 | 231 | 0.0 | 1.0 | 0.00 | 0.00 | 0.00 | 91 | 1007.5 |
| 20260905125554 | 73 | 231 | 0.0 | 1.0 | 0.00 | 0.00 | 0.00 | 91 | 1007.6 |
| 20260905125055 | 73 | 231 | 0.0 | 0.0 | 0.00 | 0.00 | 0.00 | 90 | 1007.6 |
| 20260905124555 | 73 | 231 | 0.0 | 0.0 | 0.00 | 0.00 | 0.00 | 90 | 1007.6 |
| 20260905124054 | 73 | 231 | 0.0 | 0.0 | 0.00 | 0.00 | 0.00 | 90 | 1007.7 |
| 20260905123554 | 73 | 231 | 0.0 | 0.0 | 0.00 | 0.00 | 0.00 | 90 | 1007.7 |
| 20260905123052 | 73 | 231 | 0.0 | 0.0 | 0.00 | 0.00 | 0.00 | 90 | 1007.6 |
| 20260905122552 | 72 | 231 | 0.0 | 0.0 | 0.00 | 0.00 | 0.00 | 90 | 1007.5 |
| 20260905122051 | 72 | 231 | 0.0 | 0.0 | 0.00 | 0.00 | 0.00 | 90 | 1007.4 |
| 20260905121551 | 72 | 231 | 0.0 | 0.0 | 0.00 | 0.00 | 0.00 | 90 | 1007.3 |
| 20260905121051 | 72 | 231 | 0.0 | 0.0 | 0.00 | 0.00 | 0.00 | 89 | 1007.3 |
| 20260905120550 | 73 | 231 | 0.0 | 0.0 | 0.00 | 0.00 | 0.00 | 89 | 1007.4 |
| 20260905120053 | 73 | 231 | 0.0 | 0.0 | 0.00 | 0.00 | 0.00 | 89 | 1007.2 |
| 20260905115550 | 73 | 231 | 0.0 | 0.0 | 0.00 | 0.00 | 0.00 | 89 | 1007.2 |
| 20260905115052 | 73 | 231 | 0.0 | 0.0 | 0.00 | 0.00 | 0.00 | 89 | 1007.3 |
| 20260905114602 | 73 | 231 | 0.0 | 0.0 | 0.00 | 0.00 | 0.00 | 88 | 1007.3 |
| 20260905114048 | 73 | 231 | 0.0 | 0.0 | 0.00 | 0.00 | 0.00 | 87 | 1007.3 |
| 20260905113547 | 73 | 231 | 0.0 | 0.0 | 0.00 | 0.00 | 0.00 | 87 | 1007.3 |
| 20260905113045 | 73 | 231 | 0.0 | 0.0 | 0.00 | 0.00 | 0.00 | 87 | 1007.2 |
| 20260905112545 | 74 | 231 | 0.0 | 0.0 | 0.00 | 0.00 | 0.00 | 87 | 1007.2 |
| 20260905112044 | 74 | 231 | 0.0 | 0.0 | 0.00 | 0.00 | 0.00 | 86 | 1007.2 |
| 20260905111614 | 74 | 231 | 0.0 | 0.0 | 0.00 | 0.00 | 0.00 | 86 | 1007.1 |
| 20260905111043 | 74 | 231 | 0.0 | 0.0 | 0.00 | 0.00 | 0.00 | 86 | 1007.2 |
| 20260905110546 | 74 | 231 | 0.0 | 0.0 | 0.00 | 0.00 | 0.00 | 85 | 1007.3 |
| 20260905110042 | 75 | 231 | 0.0 | 0.0 | 0.00 | 0.00 | 0.00 | 85 | 1007.2 |
| 20260905105540 | 75 | 231 | 0.0 | 0.0 | 0.00 | 0.00 | 0.00 | 85 | 1007.2 |
| 20260905105042 | 75 | 231 | 0.0 | 0.0 | 0.00 | 0.00 | 0.00 | 86 | 1007.0 |
| 20260905104600 | 75 | 231 | 0.0 | 0.0 | 0.00 | 0.00 | 0.00 | 85 | 1007.0 |
| 20260905104039 | 75 | 231 | 0.0 | 0.0 | 0.00 | 0.00 | 0.00 | 85 | 1007.0 |
| 20260905103541 | 75 | 231 | 0.0 | 0.0 | 0.00 | 0.00 | 0.00 | 85 | 1006.9 |
| 20260905103041 | 75 | 231 | 0.0 | 0.0 | 0.00 | 0.00 | 0.00 | 86 | 1007.0 |
| 20260905102537 | 75 | 231 | 0.0 | 0.0 | 0.00 | 0.00 | 0.00 | 85 | 1007.0 |
| 20260905102038 | 76 | 231 | 0.0 | 0.0 | 0.00 | 0.00 | 0.00 | 85 | 1007.1 |
| 20260905101543 | 76 | 231 | 0.0 | 0.0 | 0.00 | 0.00 | 0.00 | 85 | 1007.0 |
| 20260905101037 | 76 | 231 | 0.0 | 0.0 | 0.00 | 0.00 | 0.00 | 85 | 1006.9 |
| 20260905100536 | 76 | 231 | 0.0 | 0.0 | 0.00 | 0.00 | 0.00 | 84 | 1007.0 |
| 20260905100037 | 76 | 231 | 0.0 | 0.0 | 0.00 | 0.00 | 0.00 | 84 | 1007.0 |
| 20260905095535 | 76 | 231 | 0.0 | 0.0 | 0.00 | 0.00 | 0.00 | 83 | 1007.1 |
| 20260905095034 | 76 | 231 | 0.0 | 0.0 | 0.00 | 0.00 | 0.00 | 82 | 1007.1 |
| 20260905094615 | 77 | 231 | 0.0 | 0.0 | 0.00 | 0.00 | 0.00 | 82 | 1007.1 |
| 20260905094034 | 77 | 231 | 0.0 | 1.0 | 0.00 | 0.00 | 0.00 | 82 | 1007.1 |
| 20260905093535 | 77 | 231 | 0.0 | 1.0 | 0.00 | 0.00 | 0.00 | 82 | 1006.9 |
| 20260905093033 | 77 | 231 | 0.0 | 2.0 | 0.00 | 0.00 | 0.00 | 82 | 1006.9 |
| 20260905092533 | 77 | 231 | 0.0 | 2.0 | 0.00 | 0.00 | 0.00 | 82 | 1006.9 |
| 20260905092031 | 77 | 214 | 0.0 | 1.0 | 0.00 | 0.00 | 0.00 | 82 | 1006.9 |
| 20260905091531 | 77 | 214 | 0.0 | 1.0 | 0.00 | 0.00 | 0.00 | 81 | 1006.9 |
| 20260905091031 | 77 | 214 | 0.0 | 1.0 | 0.00 | 0.00 | 0.00 | 81 | 1006.9 |
| 20260905090529 | 77 | 214 | 0.0 | 1.0 | 0.00 | 0.00 | 0.00 | 81 | 1006.9 |
| 20260905090032 | 77 | 214 | 0.0 | 1.0 | 0.00 | 0.00 | 0.00 | 81 | 1006.8 |
| 20260905085528 | 78 | 322 | 0.0 | 1.0 | 0.00 | 0.00 | 0.00 | 80 | 1006.7 |
| 20260905085034 | 78 | 179 | 0.0 | 2.0 | 0.00 | 0.00 | 0.00 | 80 | 1006.8 |
| 20260905084528 | 78 | 231 | 0.0 | 4.0 | 0.00 | 0.00 | 0.00 | 80 | 1006.7 |
| 20260905084028 | 78 | 240 | 0.0 | 4.0 | 0.00 | 0.00 | 0.00 | 80 | 1006.6 |
| 20260905083528 | 78 | 229 | 0.0 | 2.0 | 0.00 | 0.00 | 0.00 | 79 | 1006.6 |
| 20260905083026 | 78 | 169 | 0.0 | 3.0 | 0.00 | 0.00 | 0.00 | 79 | 1006.7 |
| 20260905082526 | 78 | 208 | 0.0 | 3.0 | 0.00 | 0.00 | 0.00 | 78 | 1006.7 |
| 20260905082025 | 78 | 240 | 0.0 | 2.0 | 0.00 | 0.00 | 0.00 | 78 | 1006.7 |
| 20260905081525 | 78 | 218 | 0.0 | 4.0 | 0.00 | 0.00 | 0.00 | 78 | 1006.6 |
| 20260905081026 | 79 | 197 | 1.0 | 4.0 | 0.00 | 0.00 | 0.00 | 77 | 1006.7 |
| 20260905080527 | 79 | 248 | 1.0 | 4.0 | 0.00 | 0.00 | 0.00 | 77 | 1006.7 |
| 20260905080025 | 79 | 198 | 1.0 | 4.0 | 0.00 | 0.00 | 0.00 | 77 | 1006.7 |
| 20260905075524 | 79 | 210 | 0.0 | 3.0 | 0.00 | 0.00 | 0.00 | 77 | 1006.7 |
| 20260905075023 | 79 | 285 | 0.0 | 3.0 | 0.00 | 0.00 | 0.00 | 77 | 1006.6 |
| 20260905074522 | 79 | 239 | 0.0 | 4.0 | 0.00 | 0.00 | 0.00 | 77 | 1006.7 |
| 20260905074020 | 79 | 240 | 0.0 | 3.0 | 0.00 | 0.00 | 0.00 | 77 | 1006.7 |
| 20260905073521 | 79 | 197 | 0.0 | 3.0 | 0.00 | 0.00 | 0.00 | 76 | 1006.7 |
| 20260905073020 | 79 | 226 | 0.0 | 5.0 | 0.00 | 0.00 | 0.00 | 76 | 1006.7 |
| 20260905072523 | 79 | 209 | 1.0 | 5.0 | 0.00 | 0.00 | 0.00 | 76 | 1006.9 |
| 20260905072018 | 79 | 206 | 1.0 | 5.0 | 0.00 | 0.00 | 0.00 | 76 | 1006.9 |
| 20260905071519 | 79 | 243 | 1.0 | 5.0 | 0.00 | 0.00 | 0.00 | 76 | 1006.9 |
| 20260905071018 | 79 | 257 | 1.0 | 3.0 | 0.00 | 0.00 | 0.00 | 76 | 1007.0 |
| 20260905070518 | 79 | 263 | 0.0 | 3.0 | 0.00 | 0.00 | 0.00 | 77 | 1006.9 |
| 20260905070018 | 79 | 238 | 0.0 | 3.0 | 0.00 | 0.00 | 0.00 | 77 | 1007.1 |
| 20260905065517 | 79 | 238 | 0.0 | 4.0 | 0.00 | 0.00 | 0.00 | 76 | 1007.1 |
| 20260905065019 | 80 | 235 | 0.0 | 4.0 | 0.00 | 0.00 | 0.00 | 77 | 1007.0 |
| 20260905064516 | 80 | 230 | 0.0 | 3.0 | 0.00 | 0.00 | 0.00 | 76 | 1007.2 |
| 20260905064017 | 80 | 195 | 0.0 | 3.0 | 0.00 | 0.00 | 0.00 | 76 | 1007.1 |
| 20260905063515 | 80 | 186 | 0.0 | 2.0 | 0.00 | 0.00 | 0.00 | 76 | 1007.2 |
| 20260905063016 | 80 | 186 | 0.0 | 2.0 | 0.00 | 0.00 | 0.00 | 76 | 1007.2 |
| 20260905062514 | 80 | 238 | 0.0 | 2.0 | 0.00 | 0.00 | 0.00 | 75 | 1007.2 |
| 20260905062013 | 80 | 249 | 0.0 | 2.0 | 0.00 | 0.00 | 0.00 | 75 | 1007.2 |
| 20260905061513 | 80 | 249 | 0.0 | 2.0 | 0.00 | 0.00 | 0.00 | 75 | 1007.2 |
| 20260905061012 | 80 | 203 | 0.0 | 2.0 | 0.00 | 0.00 | 0.00 | 74 | 1007.2 |
| 20260905060511 | 80 | 266 | 0.0 | 1.0 | 0.00 | 0.00 | 0.00 | 74 | 1007.1 |
| 20260905060011 | 80 | 214 | 0.0 | 2.0 | 0.00 | 0.00 | 0.00 | 74 | 1007.2 |
| 20260905055510 | 81 | 215 | 0.0 | 2.0 | 0.00 | 0.00 | 0.00 | 73 | 1007.1 |
| 20260905055010 | 81 | 220 | 0.0 | 2.0 | 0.00 | 0.00 | 0.00 | 73 | 1007.1 |
| 20260905054518 | 81 | 220 | 0.0 | 4.0 | 0.00 | 0.00 | 0.00 | 73 | 1007.1 |
| 20260905054008 | 81 | 233 | 0.0 | 4.0 | 0.00 | 0.00 | 0.00 | 73 | 1007.0 |
| 20260905053508 | 81 | 242 | 0.0 | 2.0 | 0.00 | 0.00 | 0.00 | 72 | 1006.9 |
| 20260905053006 | 81 | 241 | 0.0 | 2.0 | 0.00 | 0.00 | 0.00 | 72 | 1006.8 |
| 20260905052505 | 82 | 243 | 0.0 | 2.0 | 0.00 | 0.00 | 0.00 | 71 | 1006.9 |
| 20260905052004 | 82 | 204 | 0.0 | 6.0 | 0.00 | 0.00 | 0.00 | 71 | 1006.9 |
| 20260905051512 | 82 | 210 | 1.0 | 6.0 | 0.00 | 0.00 | 0.00 | 71 | 1006.9 |
| 20260905051003 | 82 | 232 | 1.0 | 4.0 | 0.00 | 0.00 | 0.00 | 70 | 1006.9 |
| 20260905050503 | 82 | 225 | 0.0 | 3.0 | 0.00 | 0.00 | 0.00 | 70 | 1006.8 |
| 20260905050003 | 82 | 97 | 0.0 | 4.0 | 0.00 | 0.00 | 0.00 | 70 | 1006.9 |
| 20260905045501 | 82 | 186 | 0.0 | 4.0 | 0.00 | 0.00 | 0.00 | 69 | 1006.8 |
| 20260905045002 | 82 | 178 | 0.0 | 3.0 | 0.00 | 0.00 | 0.00 | 69 | 1006.9 |
| 20260905044502 | 83 | 232 | 0.0 | 2.0 | 0.00 | 0.00 | 0.00 | 69 | 1006.9 |
| 20260905044001 | 83 | 232 | 0.0 | 3.0 | 0.00 | 0.00 | 0.00 | 68 | 1006.9 |
| 20260905043501 | 83 | 184 | 0.0 | 3.0 | 0.00 | 0.00 | 0.00 | 68 | 1006.8 |
| 20260905043101 | 83 | 201 | 0.0 | 3.0 | 0.00 | 0.00 | 0.00 | 68 | 1006.8 |
| 20260905043001 | 83 | 203 | 0.0 | 3.0 | 0.00 | 0.00 | 0.00 | 68 | 1006.7 |
| 20260905042600 | 83 | 244 | 0.0 | 3.0 | 0.00 | 0.00 | 0.00 | 67 | 1006.8 |
| 20260905042100 | 83 | 238 | 0.0 | 4.0 | 0.00 | 0.00 | 0.00 | 67 | 1006.9 |
| 20260905042001 | 83 | 262 | 1.0 | 5.0 | 0.00 | 0.00 | 0.00 | 67 | 1006.8 |
| 20260905041609 | 84 | 236 | 1.0 | 5.0 | 0.00 | 0.00 | 0.00 | 67 | 1006.8 |
| 20260905041101 | 84 | 252 | 1.0 | 5.0 | 0.00 | 0.00 | 0.00 | 67 | 1006.8 |
| 20260905040600 | 84 | 226 | 0.0 | 3.0 | 0.00 | 0.00 | 0.00 | 67 | 1006.8 |
| 20260905040110 | 84 | 233 | 0.0 | 3.0 | 0.00 | 0.00 | 0.00 | 66 | 1006.8 |
| 20260905035559 | 84 | 198 | 0.0 | 3.0 | 0.00 | 0.00 | 0.00 | 66 | 1006.8 |
| 20260905035101 | 84 | 237 | 0.0 | 3.0 | 0.00 | 0.00 | 0.00 | 66 | 1007.0 |
| 20260905034603 | 84 | 228 | 0.0 | 4.0 | 0.00 | 0.00 | 0.00 | 66 | 1007.0 |
| 20260905034058 | 84 | 206 | 1.0 | 4.0 | 0.00 | 0.00 | 0.00 | 66 | 1006.9 |
| 20260905033559 | 85 | 248 | 0.0 | 3.0 | 0.00 | 0.00 | 0.00 | 65 | 1006.9 |
| 20260905033107 | 85 | 203 | 0.0 | 3.0 | 0.00 | 0.00 | 0.00 | 65 | 1006.9 |
| 20260905032559 | 85 | 237 | 0.0 | 3.0 | 0.00 | 0.00 | 0.00 | 65 | 1007.1 |
| 20260905032058 | 85 | 226 | 0.0 | 3.0 | 0.00 | 0.00 | 0.00 | 64 | 1007.0 |
| 20260905031608 | 85 | 239 | 0.0 | 3.0 | 0.00 | 0.00 | 0.00 | 64 | 1007.0 |
| 20260905031059 | 85 | 198 | 0.0 | 3.0 | 0.00 | 0.00 | 0.00 | 64 | 1007.0 |
| 20260905030558 | 86 | 277 | 0.0 | 4.0 | 0.00 | 0.00 | 0.00 | 63 | 1006.9 |
| 20260905030109 | 86 | 207 | 1.0 | 4.0 | 0.00 | 0.00 | 0.00 | 63 | 1006.9 |
| 20260905025558 | 86 | 230 | 0.0 | 2.0 | 0.00 | 0.00 | 0.00 | 63 | 1006.8 |
| 20260905025057 | 86 | 266 | 0.0 | 3.0 | 0.00 | 0.00 | 0.00 | 62 | 1006.8 |
| 20260905024606 | 86 | 210 | 1.0 | 3.0 | 0.00 | 0.00 | 0.00 | 62 | 1006.8 |
| 20260905024059 | 86 | 268 | 0.0 | 4.0 | 0.00 | 0.00 | 0.00 | 62 | 1006.7 |
| 20260905023557 | 86 | 8 | 0.0 | 4.0 | 0.00 | 0.00 | 0.00 | 62 | 1006.6 |
| 20260905023058 | 86 | 243 | 0.0 | 5.0 | 0.00 | 0.00 | 0.00 | 61 | 1006.5 |
| 20260905022556 | 86 | 245 | 1.0 | 5.0 | 0.00 | 0.00 | 0.00 | 62 | 1006.3 |
| 20260905022056 | 86 | 240 | 0.0 | 2.0 | 0.00 | 0.00 | 0.00 | 62 | 1006.2 |
| 20260905021603 | 86 | 193 | 0.0 | 1.0 | 0.00 | 0.00 | 0.00 | 61 | 1006.1 |
| 20260905021055 | 86 | 243 | 0.0 | 1.0 | 0.00 | 0.00 | 0.00 | 61 | 1006.0 |
| 20260905020556 | 87 | 248 | 0.0 | 1.0 | 0.00 | 0.00 | 0.00 | 60 | 1006.0 |
| 20260905020056 | 87 | 237 | 0.0 | 1.0 | 0.00 | 0.00 | 0.00 | 59 | 1005.9 |
| 20260905015555 | 87 | 238 | 0.0 | 1.0 | 0.00 | 0.00 | 0.00 | 58 | 1005.9 |
| 20260905015054 | 87 | 257 | 0.0 | 1.0 | 0.00 | 0.00 | 0.00 | 58 | 1005.8 |
| 20260905014555 | 87 | 245 | 0.0 | 3.0 | 0.00 | 0.00 | 0.00 | 57 | 1005.6 |
| 20260905014055 | 87 | 246 | 0.0 | 3.0 | 0.00 | 0.00 | 0.00 | 56 | 1005.6 |
| 20260905013555 | 87 | 243 | 0.0 | 2.0 | 0.00 | 0.00 | 0.00 | 56 | 1005.6 |
| 20260905013115 | 87 | 240 | 0.0 | 1.0 | 0.00 | 0.00 | 0.00 | 54 | 1005.6 |
| 20260905012554 | 87 | 240 | 0.0 | 0.0 | 0.00 | 0.00 | 0.00 | 53 | 1005.5 |
| 20260905012054 | 88 | 240 | 0.0 | 1.0 | 0.00 | 0.00 | 0.00 | 52 | 1005.3 |
| 20260905011556 | 88 | 240 | 0.0 | 1.0 | 0.00 | 0.00 | 0.00 | 51 | 1005.2 |
| 20260905011054 | 89 | 240 | 0.0 | 1.0 | 0.00 | 0.00 | 0.00 | 50 | 1005.1 |
| 20260905010554 | 90 | 240 | 0.0 | 1.0 | 0.00 | 0.00 | 0.00 | 49 | 1005.2 |
| 20260905010059 | 90 | 240 | 0.0 | 1.0 | 0.00 | 0.00 | 0.00 | 48 | 1005.1 |
| 20260905005554 | 91 | 235 | 0.0 | 1.0 | 0.00 | 0.00 | 0.00 | 47 | 1005.1 |
| 20260905005053 | 91 | 235 | 0.0 | 1.0 | 0.00 | 0.00 | 0.00 | 47 | 1005.0 |
| 20260905004555 | 92 | 221 | 0.0 | 2.0 | 0.00 | 0.00 | 0.00 | 46 | 1005.1 |
| 20260905004053 | 93 | 219 | 0.0 | 2.0 | 0.00 | 0.00 | 0.00 | 45 | 1004.9 |
| 20260905003553 | 94 | 235 | 0.0 | 2.0 | 0.00 | 0.00 | 0.00 | 44 | 1004.8 |
| 20260905003052 | 95 | 247 | 0.0 | 2.0 | 0.00 | 0.00 | 0.00 | 43 | 1004.8 |
| 20260905002552 | 95 | 259 | 0.0 | 4.0 | 0.00 | 0.00 | 0.00 | 42 | 1004.8 |
| 20260905002052 | 96 | 194 | 0.0 | 4.0 | 0.00 | 0.00 | 0.00 | 42 | 1004.7 |
| 20260905001553 | 96 | 200 | 0.0 | 2.0 | 0.00 | 0.00 | 0.00 | 42 | 1004.7 |
| 20260905001052 | 96 | 221 | 0.0 | 2.0 | 0.00 | 0.00 | 0.00 | 42 | 1004.6 |
| 20260905000554 | 97 | 203 | 0.0 | 4.0 | 0.00 | 0.00 | 0.00 | 41 | 1004.7 |
| 20260905000052 | 98 | 203 | 0.0 | 4.0 | 0.00 | 0.00 | 0.00 | 41 | 1004.7 |
| 20260904235553 | 98 | 285 | 0.0 | 4.0 | 0.00 | 0.00 | 0.00 | 41 | 1004.6 |
| 20260904235053 | 98 | 348 | 0.0 | 4.0 | 0.00 | 0.00 | 0.00 | 40 | 1004.6 |
| 20260904234552 | 99 | 309 | 0.0 | 2.0 | 0.00 | 0.00 | 0.00 | 40 | 1004.6 |
| 20260904234054 | 99 | 237 | 0.0 | 2.0 | 0.00 | 0.00 | 0.00 | 40 | 1004.6 |
| 20260904233551 | 100 | 331 | 0.0 | 1.0 | 0.00 | 0.00 | 0.00 | 39 | 1004.6 |
| 20260904233050 | 100 | 4 | 0.0 | 1.0 | 0.00 | 0.00 | 0.00 | 39 | 1004.5 |
| 20260904232550 | 100 | 6 | 0.0 | 2.0 | 0.00 | 0.00 | 0.00 | 39 | 1004.6 |
| 20260904232050 | 100 | 118 | 0.0 | 2.0 | 0.00 | 0.00 | 0.00 | 40 | 1004.4 |
| 20260904231549 | 100 | 304 | 0.0 | 3.0 | 0.00 | 0.00 | 0.00 | 40 | 1004.5 |
| 20260904231049 | 100 | 173 | 0.0 | 3.0 | 0.00 | 0.00 | 0.00 | 40 | 1004.5 |
| 20260904230553 | 100 | 320 | 0.0 | 3.0 | 0.00 | 0.00 | 0.00 | 39 | 1004.5 |
| 20260904225549 | 100 | 328 | 0.0 | 2.0 | 0.00 | 0.00 | 0.00 | 41 | 1004.5 |
| 20260904225048 | 100 | 195 | 0.0 | 3.0 | 0.00 | 0.00 | 0.00 | 41 | 1004.6 |
| 20260904224548 | 101 | 255 | 1.0 | 3.0 | 0.00 | 0.00 | 0.00 | 39 | 1004.6 |
| 20260904224049 | 102 | 251 | 0.0 | 4.0 | 0.00 | 0.00 | 0.00 | 39 | 1004.6 |
| 20260904223548 | 102 | 226 | 0.0 | 4.0 | 0.00 | 0.00 | 0.00 | 39 | 1004.6 |
| 20260904223104 | 102 | 251 | 0.0 | 3.0 | 0.00 | 0.00 | 0.00 | 39 | 1004.6 |
| 20260904222546 | 102 | 257 | 0.0 | 7.0 | 0.00 | 0.00 | 0.00 | 39 | 1004.6 |
| 20260904222046 | 103 | 179 | 2.0 | 7.0 | 0.00 | 0.00 | 0.00 | 39 | 1004.7 |
| 20260904221549 | 103 | 245 | 0.0 | 3.0 | 0.00 | 0.00 | 0.00 | 38 | 1004.5 |
| 20260904221045 | 102 | 315 | 0.0 | 3.0 | 0.00 | 0.00 | 0.00 | 39 | 1004.7 |
| 20260904220544 | 102 | 153 | 0.0 | 3.0 | 0.00 | 0.00 | 0.00 | 39 | 1004.7 |
| 20260904220046 | 102 | 293 | 0.0 | 4.0 | 0.00 | 0.00 | 0.00 | 39 | 1004.7 |
| 20260904215545 | 102 | 171 | 1.0 | 5.0 | 0.00 | 0.00 | 0.00 | 39 | 1004.6 |
| 20260904215042 | 102 | 181 | 0.0 | 5.0 | 0.00 | 0.00 | 0.00 | 39 | 1004.7 |
| 20260904214548 | 101 | 250 | 0.0 | 5.0 | 0.00 | 0.00 | 0.00 | 39 | 1004.7 |
| 20260904214041 | 100 | 243 | 0.0 | 9.0 | 0.00 | 0.00 | 0.00 | 41 | 1004.8 |
| 20260904213541 | 100 | 198 | 3.0 | 9.0 | 0.00 | 0.00 | 0.00 | 40 | 1004.8 |
| 20260904213043 | 100 | 179 | 3.0 | 9.0 | 0.00 | 0.00 | 0.00 | 39 | 1004.9 |
| 20260904212539 | 100 | 176 | 1.0 | 9.0 | 0.00 | 0.00 | 0.00 | 40 | 1005.0 |